Location: Carabito
(9.8355°N, 67.9249°W)
Time: 11:27:34
(UTC+00:00)

Cosmos 1072 Rocket - Pass Details

Date: 23 May 2024
Orbit: 947 x 1009 km, 82.9° (Epoch: 20 June)

Event Time Altitude Azimuth Distance (km) Brightness Sun altitude
Rises 00:30:18 0° 4° (N) 3,609 7.8 -24.0°
Reaches altitude 10° 00:32:51 10° 9° (N) 2,662 7.0 -24.6°
Enters shadow 00:38:33 55° 77° (ENE) 1,119 4.5 -25.8°
